Time,TemperatureF,DewpointF,PressureIn,WindDirection,WindDirectionDegrees,WindSpeedMPH,WindSpeedGustMPH,Humidity,HourlyPrecipIn,Conditions,Clouds,dailyrainin,SoftwareType,DateUTC
2013-04-26 00:01:00,39.3,27.7,30.28,NNW,341,3.0,13.0,63,0.00,,,0.01,Wunderground v.1.15,2013-04-26 04:01:00,
2013-04-26 00:03:00,39.5,27.9,30.28,North,349,3.0,13.0,63,0.00,,,0.00,Wunderground v.1.15,2013-04-26 04:03:00,
2013-04-26 00:04:00,39.5,27.9,30.28,West,281,3.0,13.0,63,0.00,,,0.00,Wunderground v.1.15,2013-04-26 04:04:00,
2013-04-26 00:08:00,39.7,27.7,30.28,ENE,70,2.0,13.0,62,0.00,,,0.00,Wunderground v.1.15,2013-04-26 04:08:00,
2013-04-26 00:12:00,39.6,28.0,30.28,ENE,70,2.0,13.0,63,0.00,,,0.00,Wunderground v.1.15,2013-04-26 04:12:00,
2013-04-26 00:18:00,39.4,27.8,30.28,East,99,1.0,13.0,63,0.00,,,0.00,Wunderground v.1.15,2013-04-26 04:18:00,
2013-04-26 00:24:00,39.4,28.2,30.28,East,97,1.0,13.0,64,0.00,,,0.00,Wunderground v.1.15,2013-04-26 04:24:00,
2013-04-26 00:29:00,39.1,27.9,30.27,East,97,1.0,13.0,64,0.00,,,0.00,Wunderground v.1.15,2013-04-26 04:29:00,
2013-04-26 00:35:00,38.8,28.4,30.27,East,97,0.0,13.0,66,0.00,,,0.00,Wunderground v.1.15,2013-04-26 04:35:00,
2013-04-26 00:41:00,38.8,28.4,30.27,North,349,1.0,13.0,66,0.00,,,0.00,Wunderground v.1.15,2013-04-26 04:41:00,
2013-04-26 00:47:00,38.5,28.5,30.27,North,349,1.0,13.0,67,0.00,,,0.00,Wunderground v.1.15,2013-04-26 04:47:00,
2013-04-26 00:53:00,38.2,28.9,30.28,WNW,303,1.0,13.0,69,0.00,,,0.00,Wunderground v.1.15,2013-04-26 04:53:00,
2013-04-26 00:59:00,38.1,28.8,30.28,NW,309,1.0,13.0,69,0.00,,,0.00,Wunderground v.1.15,2013-04-26 04:59:00,
2013-04-26 01:05:00,38.6,28.6,30.28,NW,309,0.0,13.0,67,0.00,,,0.00,Wunderground v.1.15,2013-04-26 05:05:00,
2013-04-26 01:10:00,38.4,28.8,30.28,ENE,63,1.0,13.0,68,0.00,,,0.00,Wunderground v.1.15,2013-04-26 05:10:00,
2013-04-26 01:16:00,37.9,28.3,30.28,ENE,63,1.0,13.0,68,0.00,,,0.00,Wunderground v.1.15,2013-04-26 05:16:00,
2013-04-26 01:22:00,37.2,28.0,30.28,ENE,63,0.0,13.0,69,0.00,,,0.00,Wunderground v.1.15,2013-04-26 05:22:00,
2013-04-26 01:27:00,36.8,28.3,30.28,ENE,63,0.0,13.0,71,0.00,,,0.00,Wunderground v.1.15,2013-04-26 05:27:00,
2013-04-26 01:33:00,36.5,27.6,30.28,ENE,62,0.0,13.0,70,0.00,,,0.00,Wunderground v.1.15,2013-04-26 05:33:00,
2013-04-26 01:39:00,36.1,27.9,30.28,ENE,63,0.0,13.0,72,0.00,,,0.00,Wunderground v.1.15,2013-04-26 05:39:00,
2013-04-26 01:45:00,35.8,28.6,30.28,ENE,62,0.0,13.0,75,0.00,,,0.00,Wunderground v.1.15,2013-04-26 05:45:00,
2013-04-26 01:50:00,35.7,28.6,30.28,ENE,62,0.0,13.0,75,0.00,,,0.00,Wunderground v.1.15,2013-04-26 05:50:00,
2013-04-26 01:56:00,35.5,28.7,30.28,ENE,63,0.0,13.0,76,0.00,,,0.00,Wunderground v.1.15,2013-04-26 05:56:00,
2013-04-26 02:02:00,35.3,28.5,30.28,ENE,62,0.0,13.0,76,0.00,,,0.00,Wunderground v.1.15,2013-04-26 06:02:00,
2013-04-26 02:08:00,34.9,28.7,30.28,ENE,63,0.0,13.0,78,0.00,,,0.00,Wunderground v.1.15,2013-04-26 06:08:00,
2013-04-26 02:14:00,34.5,28.3,30.28,ENE,63,0.0,13.0,78,0.00,,,0.00,Wunderground v.1.15,2013-04-26 06:14:00,
2013-04-26 02:20:00,33.8,27.7,30.28,ENE,63,0.0,13.0,78,0.00,,,0.00,Wunderground v.1.15,2013-04-26 06:20:00,
2013-04-26 02:26:00,33.6,27.5,30.28,ENE,63,0.0,13.0,78,0.00,,,0.00,Wunderground v.1.15,2013-04-26 06:26:00,
2013-04-26 02:33:00,33.9,27.1,30.28,ENE,63,0.0,13.0,76,0.00,,,0.00,Wunderground v.1.15,2013-04-26 06:33:00,
2013-04-26 02:38:00,33.5,26.7,30.28,ENE,63,0.0,13.0,76,0.00,,,0.00,Wunderground v.1.15,2013-04-26 06:38:00,
2013-04-26 02:44:00,33.1,27.3,30.28,ENE,63,0.0,13.0,79,0.00,,,0.00,Wunderground v.1.15,2013-04-26 06:44:00,
2013-04-26 02:50:00,32.8,27.3,30.28,ENE,63,0.0,13.0,80,0.00,,,0.00,Wunderground v.1.15,2013-04-26 06:50:00,
2013-04-26 02:56:00,32.4,27.5,30.28,ENE,63,0.0,13.0,82,0.00,,,0.00,Wunderground v.1.15,2013-04-26 06:56:00,
2013-04-26 03:02:00,32.1,27.2,30.28,ENE,63,0.0,13.0,82,0.00,,,0.00,Wunderground v.1.15,2013-04-26 07:02:00,
2013-04-26 03:08:00,31.8,27.2,30.29,ENE,62,0.0,13.0,83,0.00,,,0.00,Wunderground v.1.15,2013-04-26 07:08:00,
2013-04-26 03:14:00,31.7,27.1,30.29,ENE,63,0.0,13.0,83,0.00,,,0.00,Wunderground v.1.15,2013-04-26 07:14:00,
2013-04-26 03:20:00,31.5,26.9,30.30,ENE,63,0.0,13.0,83,0.00,,,0.00,Wunderground v.1.15,2013-04-26 07:20:00,
2013-04-26 03:25:00,31.3,27.0,30.31,WNW,293,0.0,13.0,84,0.00,,,0.00,Wunderground v.1.15,2013-04-26 07:25:00,
2013-04-26 03:31:00,30.9,26.9,30.32,NNE,18,1.0,13.0,85,0.00,,,0.00,Wunderground v.1.15,2013-04-26 07:31:00,
2013-04-26 03:37:00,31.1,27.4,30.32,East,96,1.0,13.0,86,0.00,,,0.00,Wunderground v.1.15,2013-04-26 07:37:00,
2013-04-26 03:43:00,31.2,27.5,30.33,East,98,1.0,13.0,86,0.00,,,0.00,Wunderground v.1.15,2013-04-26 07:43:00,
2013-04-26 03:49:00,31.6,27.6,30.33,ESE,109,1.0,13.0,85,0.00,,,0.00,Wunderground v.1.15,2013-04-26 07:49:00,
2013-04-26 03:55:00,31.9,27.9,30.33,WNW,295,0.0,13.0,85,0.00,,,0.00,Wunderground v.1.15,2013-04-26 07:55:00,
2013-04-26 04:00:00,32.4,28.1,30.33,South,184,1.0,13.0,84,0.00,,,0.00,Wunderground v.1.15,2013-04-26 08:00:00,
2013-04-26 04:06:00,33.1,28.5,30.33,WSW,245,1.0,13.0,83,0.00,,,0.00,Wunderground v.1.15,2013-04-26 08:06:00,
2013-04-26 04:12:00,34.4,29.5,30.34,West,269,2.0,13.0,82,0.00,,,0.00,Wunderground v.1.15,2013-04-26 08:12:00,
2013-04-26 04:18:00,35.1,29.9,30.34,West,274,1.0,13.0,81,0.00,,,0.00,Wunderground v.1.15,2013-04-26 08:18:00,
2013-04-26 04:24:00,35.5,29.9,30.34,West,278,2.0,13.0,80,0.00,,,0.00,Wunderground v.1.15,2013-04-26 08:24:00,
2013-04-26 04:30:00,35.6,30.0,30.34,WNW,287,2.0,2.0,80,0.00,,,0.00,Wunderground v.1.15,2013-04-26 08:30:00,
2013-04-26 04:36:00,35.8,30.2,30.35,West,277,2.0,13.0,80,0.00,,,0.00,Wunderground v.1.15,2013-04-26 08:36:00,
2013-04-26 04:41:00,35.9,30.3,30.35,WSW,257,2.0,13.0,80,0.00,,,0.00,Wunderground v.1.15,2013-04-26 08:41:00,
2013-04-26 04:47:00,35.9,30.3,30.35,West,280,2.0,13.0,80,0.00,,,0.00,Wunderground v.1.15,2013-04-26 08:47:00,
2013-04-26 04:53:00,35.8,30.2,30.35,SW,218,1.0,13.0,80,0.00,,,0.00,Wunderground v.1.15,2013-04-26 08:53:00,
2013-04-26 04:59:00,35.8,30.2,30.35,WNW,285,1.0,13.0,80,0.00,,,0.00,Wunderground v.1.15,2013-04-26 08:59:00,
2013-04-26 05:04:00,35.7,30.1,30.36,SW,228,1.0,13.0,80,0.00,,,0.00,Wunderground v.1.15,2013-04-26 09:04:00,
2013-04-26 05:10:00,35.6,30.0,30.36,South,190,1.0,13.0,80,0.00,,,0.00,Wunderground v.1.15,2013-04-26 09:10:00,
2013-04-26 05:16:00,35.5,29.9,30.36,South,190,0.0,13.0,80,0.00,,,0.00,Wunderground v.1.15,2013-04-26 09:16:00,
2013-04-26 05:22:00,35.2,30.3,30.37,WSW,252,1.0,13.0,82,0.00,,,0.00,Wunderground v.1.15,2013-04-26 09:22:00,
2013-04-26 05:27:00,35.4,30.5,30.37,SW,231,1.0,13.0,82,0.00,,,0.00,Wunderground v.1.15,2013-04-26 09:27:00,
2013-04-26 05:33:00,35.9,30.9,30.37,WSW,249,2.0,13.0,82,0.00,,,0.00,Wunderground v.1.15,2013-04-26 09:33:00,
2013-04-26 05:39:00,36.1,30.8,30.37,West,263,1.0,13.0,81,0.00,,,0.00,Wunderground v.1.15,2013-04-26 09:39:00,
2013-04-26 05:45:00,36.1,30.8,30.38,WSW,253,1.0,13.0,81,0.00,,,0.00,Wunderground v.1.15,2013-04-26 09:45:00,
2013-04-26 05:51:00,36.2,31.2,30.38,West,260,1.0,13.0,82,0.00,,,0.00,Wunderground v.1.15,2013-04-26 09:51:00,
2013-04-26 05:57:00,36.3,31.3,30.38,WSW,248,1.0,13.0,82,0.00,,,0.00,Wunderground v.1.15,2013-04-26 09:57:00,
2013-04-26 06:03:00,36.3,31.3,30.39,SW,234,1.0,13.0,82,0.00,,,0.00,Wunderground v.1.15,2013-04-26 10:03:00,
2013-04-26 06:09:00,36.4,31.7,30.39,SSW,193,1.0,13.0,83,0.00,,,0.00,Wunderground v.1.15,2013-04-26 10:09:00,
2013-04-26 06:14:00,36.4,31.7,30.39,SW,226,1.0,13.0,83,0.00,,,0.00,Wunderground v.1.15,2013-04-26 10:14:00,
2013-04-26 06:20:00,36.5,31.8,30.39,SW,225,1.0,13.0,83,0.00,,,0.00,Wunderground v.1.15,2013-04-26 10:20:00,
2013-04-26 06:25:00,36.6,31.9,30.40,West,264,2.0,13.0,83,0.00,,,0.00,Wunderground v.1.15,2013-04-26 10:25:00,
2013-04-26 06:31:00,36.6,32.2,30.40,West,280,2.0,13.0,84,0.00,,,0.00,Wunderground v.1.15,2013-04-26 10:31:00,
2013-04-26 06:37:00,36.6,32.2,30.40,SSW,201,2.0,13.0,84,0.00,,,0.00,Wunderground v.1.15,2013-04-26 10:37:00,
2013-04-26 06:43:00,36.6,32.2,30.41,SSW,203,1.0,13.0,84,0.00,,,0.00,Wunderground v.1.15,2013-04-26 10:43:00,
2013-04-26 06:48:00,36.6,32.5,30.41,SW,224,1.0,13.0,85,0.00,,,0.00,Wunderground v.1.15,2013-04-26 10:48:00,
2013-04-26 06:54:00,36.7,32.6,30.41,WSW,242,1.0,13.0,85,0.00,,,0.00,Wunderground v.1.15,2013-04-26 10:54:00,
2013-04-26 07:00:00,36.8,32.7,30.41,WNW,288,1.0,13.0,85,0.00,,,0.00,Wunderground v.1.15,2013-04-26 11:00:00,
2013-04-26 07:06:00,36.9,32.8,30.42,West,280,1.0,13.0,85,0.00,,,0.00,Wunderground v.1.15,2013-04-26 11:06:00,
2013-04-26 07:12:00,36.9,32.8,30.42,SSW,207,1.0,13.0,85,0.00,,,0.00,Wunderground v.1.15,2013-04-26 11:12:00,
2013-04-26 07:18:00,36.9,33.1,30.42,SW,214,2.0,13.0,86,0.00,,,0.00,Wunderground v.1.15,2013-04-26 11:18:00,
2013-04-26 07:24:00,36.9,33.1,30.42,WNW,290,2.0,13.0,86,0.00,,,0.00,Wunderground v.1.15,2013-04-26 11:24:00,
2013-04-26 07:29:00,37.1,33.3,30.42,NW,311,2.0,13.0,86,0.00,,,0.00,Wunderground v.1.15,2013-04-26 11:29:00,
2013-04-26 07:34:00,37.3,33.5,30.42,NW,310,2.0,6.0,86,0.00,,,0.00,Wunderground v.1.15,2013-04-26 11:34:00,
2013-04-26 07:39:00,37.5,33.7,30.42,WNW,302,2.0,6.0,86,0.00,,,0.00,Wunderground v.1.15,2013-04-26 11:39:00,
2013-04-26 07:44:00,37.7,33.6,30.42,WNW,283,2.0,6.0,85,0.00,,,0.00,Wunderground v.1.15,2013-04-26 11:44:00,
2013-04-26 07:50:00,37.8,33.7,30.42,WNW,287,2.0,6.0,85,0.00,,,0.00,Wunderground v.1.15,2013-04-26 11:50:00,
2013-04-26 07:55:00,37.9,34.1,30.42,West,262,2.0,6.0,86,0.00,,,0.00,Wunderground v.1.15,2013-04-26 11:55:00,
2013-04-26 08:00:00,37.9,33.8,30.42,West,278,2.0,6.0,85,0.00,,,0.00,Wunderground v.1.15,2013-04-26 12:00:00,
2013-04-26 08:05:00,37.8,33.7,30.42,SW,226,3.0,6.0,85,0.00,,,0.00,Wunderground v.1.15,2013-04-26 12:05:00,
2013-04-26 08:10:00,37.9,33.5,30.42,South,187,3.0,3.0,84,0.00,,,0.00,Wunderground v.1.15,2013-04-26 12:10:00,
2013-04-26 08:16:00,38.0,33.3,30.42,North,352,2.0,6.0,83,0.00,,,0.00,Wunderground v.1.15,2013-04-26 12:16:00,
2013-04-26 08:21:00,38.1,33.4,30.42,WSW,248,3.0,6.0,83,0.00,,,0.00,Wunderground v.1.15,2013-04-26 12:21:00,
2013-04-26 08:26:00,38.3,33.3,30.42,WSW,242,2.0,6.0,82,0.00,,,0.00,Wunderground v.1.15,2013-04-26 12:26:00,
2013-04-26 08:31:00,38.3,33.0,30.42,NNW,338,2.0,6.0,81,0.00,,,0.00,Wunderground v.1.15,2013-04-26 12:31:00,
2013-04-26 08:36:00,38.3,33.0,30.42,WSW,255,2.0,6.0,81,0.00,,,0.00,Wunderground v.1.15,2013-04-26 12:36:00,
2013-04-26 08:42:00,39.4,34.1,30.42,WNW,286,2.0,6.0,81,0.00,,,0.00,Wunderground v.1.15,2013-04-26 12:42:00,
2013-04-26 08:47:00,39.9,33.6,30.42,West,270,2.0,6.0,78,0.00,,,0.00,Wunderground v.1.15,2013-04-26 12:47:00,
2013-04-26 08:52:00,40.2,33.2,30.42,NNW,329,2.0,6.0,76,0.00,,,0.00,Wunderground v.1.15,2013-04-26 12:52:00,
2013-04-26 08:57:00,40.3,33.0,30.43,WNW,297,2.0,6.0,75,0.00,,,0.00,Wunderground v.1.15,2013-04-26 12:57:00,
2013-04-26 09:02:00,40.5,32.9,30.43,WNW,302,3.0,6.0,74,0.00,,,0.00,Wunderground v.1.15,2013-04-26 13:02:00,
2013-04-26 09:08:00,41.1,33.4,30.43,West,267,3.0,6.0,74,0.00,,,0.00,Wunderground v.1.15,2013-04-26 13:08:00,
2013-04-26 09:13:00,41.2,32.5,30.43,WNW,290,3.0,6.0,71,0.00,,,0.00,Wunderground v.1.15,2013-04-26 13:13:00,
2013-04-26 09:18:00,41.4,32.3,30.43,West,273,3.0,7.0,70,0.00,,,0.00,Wunderground v.1.15,2013-04-26 13:18:00,
2013-04-26 09:23:00,42.0,32.9,30.43,NNW,342,4.0,6.0,70,0.00,,,0.00,Wunderground v.1.15,2013-04-26 13:23:00,
2013-04-26 09:28:00,43.0,33.5,30.43,NW,314,3.0,6.0,69,0.00,,,0.00,Wunderground v.1.15,2013-04-26 13:28:00,
2013-04-26 09:33:00,42.5,31.9,30.43,WSW,256,3.0,6.0,66,0.00,,,0.00,Wunderground v.1.15,2013-04-26 13:33:00,
2013-04-26 09:38:00,42.4,31.8,30.43,WNW,295,3.0,6.0,66,0.00,,,0.00,Wunderground v.1.15,2013-04-26 13:38:00,
2013-04-26 09:44:00,42.9,32.3,30.43,NNW,330,4.0,6.0,66,0.00,,,0.00,Wunderground v.1.15,2013-04-26 13:44:00,
2013-04-26 09:49:00,43.7,32.7,30.43,West,274,3.0,6.0,65,0.00,,,0.00,Wunderground v.1.15,2013-04-26 13:49:00,
2013-04-26 09:54:00,44.8,34.1,30.43,West,259,2.0,6.0,66,0.00,,,0.00,Wunderground v.1.15,2013-04-26 13:54:00,
2013-04-26 09:59:00,44.3,32.1,30.43,NW,313,3.0,8.0,62,0.00,,,0.00,Wunderground v.1.15,2013-04-26 13:59:00,
2013-04-26 10:04:00,43.5,30.5,30.44,WNW,295,4.0,6.0,60,0.00,,,0.00,Wunderground v.1.15,2013-04-26 14:04:00,
2013-04-26 10:09:00,44.0,29.7,30.43,West,269,4.0,6.0,57,0.00,,,0.00,Wunderground v.1.15,2013-04-26 14:09:00,
2013-04-26 10:14:00,44.7,30.8,30.43,WNW,290,3.0,6.0,58,0.00,,,0.00,Wunderground v.1.15,2013-04-26 14:14:00,
2013-04-26 10:19:00,45.0,31.5,30.43,NE,43,2.0,6.0,59,0.00,,,0.00,Wunderground v.1.15,2013-04-26 14:19:00,
2013-04-26 10:24:00,45.7,31.8,30.44,West,278,2.0,6.0,58,0.00,,,0.00,Wunderground v.1.15,2013-04-26 14:24:00,
2013-04-26 10:30:00,45.5,31.6,30.44,NNW,331,3.0,6.0,58,0.00,,,0.00,Wunderground v.1.15,2013-04-26 14:30:00,
2013-04-26 10:35:00,44.9,31.0,30.44,WNW,287,4.0,6.0,58,0.00,,,0.00,Wunderground v.1.15,2013-04-26 14:35:00,
2013-04-26 10:40:00,44.8,30.9,30.44,WNW,300,3.0,3.0,58,0.00,,,0.00,Wunderground v.1.15,2013-04-26 14:40:00,
2013-04-26 10:45:00,45.9,31.5,30.44,WSW,247,3.0,6.0,57,0.00,,,0.00,Wunderground v.1.15,2013-04-26 14:45:00,
2013-04-26 10:50:00,46.1,30.8,30.44,WNW,302,3.0,3.0,55,0.00,,,0.00,Wunderground v.1.15,2013-04-26 14:50:00,
2013-04-26 10:56:00,45.9,29.7,30.43,West,264,4.0,6.0,53,0.00,,,0.00,Wunderground v.1.15,2013-04-26 14:56:00,
2013-04-26 11:01:00,46.2,31.4,30.43,North,349,4.0,7.0,56,0.00,,,0.00,Wunderground v.1.15,2013-04-26 15:01:00,
2013-04-26 11:06:00,46.4,31.1,30.43,NNW,347,3.0,7.0,55,0.00,,,0.00,Wunderground v.1.15,2013-04-26 15:06:00,
2013-04-26 11:11:00,47.4,32.9,30.43,West,277,3.0,7.0,57,0.00,,,0.00,Wunderground v.1.15,2013-04-26 15:11:00,
2013-04-26 11:16:00,46.9,32.0,30.43,West,271,3.0,7.0,56,0.00,,,0.00,Wunderground v.1.15,2013-04-26 15:16:00,
2013-04-26 11:22:00,47.3,32.4,30.43,South,191,3.0,6.0,56,0.00,,,0.00,Wunderground v.1.15,2013-04-26 15:22:00,
2013-04-26 11:27:00,47.3,29.1,30.43,NW,318,3.0,7.0,49,0.00,,,0.00,Wunderground v.1.15,2013-04-26 15:27:00,
2013-04-26 11:32:00,47.7,31.4,30.43,SE,125,3.0,6.0,53,0.00,,,0.00,Wunderground v.1.15,2013-04-26 15:32:00,
2013-04-26 11:37:00,48.3,31.9,30.43,NW,313,2.0,6.0,53,0.00,,,0.00,Wunderground v.1.15,2013-04-26 15:37:00,
2013-04-26 11:42:00,48.3,32.4,30.43,North,358,3.0,6.0,54,0.00,,,0.00,Wunderground v.1.15,2013-04-26 15:42:00,
2013-04-26 11:48:00,48.1,30.8,30.43,NNE,20,4.0,7.0,51,0.00,,,0.00,Wunderground v.1.15,2013-04-26 15:48:00,
2013-04-26 11:53:00,48.3,30.0,30.43,WNW,297,3.0,6.0,49,0.00,,,0.00,Wunderground v.1.15,2013-04-26 15:53:00,
2013-04-26 11:58:00,48.7,29.9,30.43,WSW,255,4.0,8.0,48,0.00,,,0.00,Wunderground v.1.15,2013-04-26 15:58:00,
2013-04-26 12:03:00,48.6,27.6,30.43,WNW,300,4.0,6.0,44,0.00,,,0.00,Wunderground v.1.15,2013-04-26 16:03:00,
2013-04-26 12:08:00,49.1,28.1,30.43,NNW,327,4.0,7.0,44,0.00,,,0.00,Wunderground v.1.15,2013-04-26 16:08:00,
2013-04-26 12:14:00,49.0,29.1,30.42,South,169,3.0,6.0,46,0.00,,,0.00,Wunderground v.1.15,2013-04-26 16:14:00,
2013-04-26 12:19:00,49.5,31.1,30.43,WNW,293,3.0,6.0,49,0.00,,,0.00,Wunderground v.1.15,2013-04-26 16:19:00,
2013-04-26 12:24:00,48.5,31.2,30.42,NE,37,4.0,6.0,51,0.00,,,0.00,Wunderground v.1.15,2013-04-26 16:24:00,
2013-04-26 12:29:00,49.3,29.4,30.42,WNW,285,4.0,6.0,46,0.00,,,0.00,Wunderground v.1.15,2013-04-26 16:29:00,
2013-04-26 12:34:00,49.3,29.9,30.42,WNW,300,4.0,6.0,47,0.00,,,0.00,Wunderground v.1.15,2013-04-26 16:34:00,
2013-04-26 12:40:00,48.1,27.2,30.42,West,277,4.0,4.0,44,0.00,,,0.00,Wunderground v.1.15,2013-04-26 16:40:00,
2013-04-26 12:45:00,48.5,29.2,30.42,West,266,4.0,8.0,47,0.00,,,0.00,Wunderground v.1.15,2013-04-26 16:45:00,
2013-04-26 12:50:00,49.0,30.1,30.42,West,273,4.0,7.0,48,0.00,,,0.00,Wunderground v.1.15,2013-04-26 16:50:00,
2013-04-26 12:55:00,49.2,28.7,30.42,WNW,287,4.0,7.0,45,0.00,,,0.00,Wunderground v.1.15,2013-04-26 16:55:00,
2013-04-26 13:00:00,50.1,30.1,30.42,ESE,105,5.0,5.0,46,0.00,,,0.00,Wunderground v.1.15,2013-04-26 17:00:00,
2013-04-26 13:06:00,49.9,28.3,30.42,WNW,302,4.0,6.0,43,0.00,,,0.00,Wunderground v.1.15,2013-04-26 17:06:00,
2013-04-26 13:11:00,48.7,27.2,30.42,NW,318,4.0,6.0,43,0.00,,,0.00,Wunderground v.1.15,2013-04-26 17:11:00,
2013-04-26 13:16:00,49.0,29.1,30.42,WNW,287,3.0,6.0,46,0.00,,,0.00,Wunderground v.1.15,2013-04-26 17:16:00,
2013-04-26 13:21:00,50.1,30.6,30.42,WNW,300,3.0,6.0,47,0.00,,,0.00,Wunderground v.1.15,2013-04-26 17:21:00,
2013-04-26 13:26:00,50.5,28.8,30.42,SSW,201,5.0,6.0,43,0.00,,,0.00,Wunderground v.1.15,2013-04-26 17:26:00,
2013-04-26 13:32:00,50.6,29.5,30.42,SSE,166,4.0,7.0,44,0.00,,,0.00,Wunderground v.1.15,2013-04-26 17:32:00,
2013-04-26 13:37:00,50.3,27.5,30.42,NW,318,4.0,7.0,41,0.00,,,0.00,Wunderground v.1.15,2013-04-26 17:37:00,
2013-04-26 13:42:00,51.4,30.2,30.42,NW,315,4.0,6.0,44,0.00,,,0.00,Wunderground v.1.15,2013-04-26 17:42:00,
2013-04-26 13:47:00,51.1,31.6,30.42,WSW,242,4.0,6.0,47,0.00,,,0.00,Wunderground v.1.15,2013-04-26 17:47:00,
2013-04-26 13:52:00,51.2,31.1,30.42,NE,35,4.0,6.0,46,0.00,,,0.00,Wunderground v.1.15,2013-04-26 17:52:00,
2013-04-26 13:58:00,50.5,29.9,30.42,NNW,337,4.0,6.0,45,0.00,,,0.00,Wunderground v.1.15,2013-04-26 17:58:00,
2013-04-26 14:03:00,49.8,31.4,30.42,NW,311,4.0,6.0,49,0.00,,,0.00,Wunderground v.1.15,2013-04-26 18:03:00,
2013-04-26 14:08:00,49.6,31.2,30.42,North,355,3.0,6.0,49,0.00,,,0.00,Wunderground v.1.15,2013-04-26 18:08:00,
2013-04-26 14:13:00,50.4,30.9,30.42,NW,312,2.0,6.0,47,0.00,,,0.00,Wunderground v.1.15,2013-04-26 18:13:00,
2013-04-26 14:18:00,51.1,31.6,30.42,WSW,254,3.0,6.0,47,0.00,,,0.00,Wunderground v.1.15,2013-04-26 18:18:00,
2013-04-26 14:23:00,51.6,31.5,30.42,West,278,5.0,8.0,46,0.00,,,0.00,Wunderground v.1.15,2013-04-26 18:23:00,
2013-04-26 14:28:00,50.8,31.8,30.42,North,5,5.0,8.0,48,0.00,,,0.00,Wunderground v.1.15,2013-04-26 18:28:00,
2013-04-26 14:33:00,51.0,32.5,30.42,North,1,4.0,6.0,49,0.00,,,0.00,Wunderground v.1.15,2013-04-26 18:33:00,
2013-04-26 14:38:00,49.8,29.8,30.42,WNW,297,3.0,6.0,46,0.00,,,0.00,Wunderground v.1.15,2013-04-26 18:38:00,
2013-04-26 14:43:00,49.0,29.6,30.42,NW,319,3.0,6.0,47,0.00,,,0.00,Wunderground v.1.15,2013-04-26 18:43:00,
2013-04-26 14:48:00,49.8,32.4,30.42,WSW,250,3.0,7.0,51,0.00,,,0.00,Wunderground v.1.15,2013-04-26 18:48:00,
2013-04-26 14:54:00,50.9,32.9,30.42,NNE,23,4.0,6.0,50,0.00,,,0.00,Wunderground v.1.15,2013-04-26 18:54:00,
2013-04-26 14:59:00,50.8,31.8,30.42,WNW,283,5.0,6.0,48,0.00,,,0.00,Wunderground v.1.15,2013-04-26 18:59:00,
2013-04-26 15:04:00,51.1,33.1,30.42,WNW,285,5.0,8.0,50,0.00,,,0.00,Wunderground v.1.15,2013-04-26 19:04:00,
2013-04-26 15:09:00,51.3,31.2,30.42,WNW,297,5.0,9.0,46,0.00,,,0.00,Wunderground v.1.15,2013-04-26 19:09:00,
2013-04-26 15:14:00,49.7,29.2,30.42,NNE,21,3.0,6.0,45,0.00,,,0.00,Wunderground v.1.15,2013-04-26 19:14:00,
2013-04-26 15:20:00,49.9,33.0,30.42,WNW,287,3.0,3.0,52,0.00,,,0.00,Wunderground v.1.15,2013-04-26 19:20:00,
2013-04-26 15:25:00,50.3,31.8,30.42,West,277,3.0,6.0,49,0.00,,,0.00,Wunderground v.1.15,2013-04-26 19:25:00,
2013-04-26 15:30:00,49.5,30.1,30.42,NW,323,4.0,6.0,47,0.00,,,0.00,Wunderground v.1.15,2013-04-26 19:30:00,
2013-04-26 15:35:00,49.4,31.5,30.42,SW,219,4.0,6.0,50,0.00,,,0.00,Wunderground v.1.15,2013-04-26 19:35:00,
2013-04-26 15:40:00,50.3,30.8,30.42,West,272,3.0,7.0,47,0.00,,,0.00,Wunderground v.1.15,2013-04-26 19:40:00,
2013-04-26 15:46:00,51.1,31.0,30.42,NNW,337,5.0,8.0,46,0.00,,,0.00,Wunderground v.1.15,2013-04-26 19:46:00,
2013-04-26 15:51:00,51.3,30.7,30.41,WNW,287,5.0,6.0,45,0.00,,,0.00,Wunderground v.1.15,2013-04-26 19:51:00,
2013-04-26 15:56:00,50.8,30.7,30.42,WNW,294,4.0,9.0,46,0.00,,,0.00,Wunderground v.1.15,2013-04-26 19:56:00,
2013-04-26 16:01:00,50.7,29.6,30.42,NNW,338,4.0,6.0,44,0.00,,,0.00,Wunderground v.1.15,2013-04-26 20:01:00,
2013-04-26 16:06:00,50.8,30.7,30.42,West,281,4.0,6.0,46,0.00,,,0.00,Wunderground v.1.15,2013-04-26 20:06:00,
2013-04-26 16:12:00,51.5,30.3,30.42,NNW,327,3.0,8.0,44,0.00,,,0.00,Wunderground v.1.15,2013-04-26 20:12:00,
2013-04-26 16:17:00,51.1,30.5,30.42,NNW,340,4.0,8.0,45,0.00,,,0.00,Wunderground v.1.15,2013-04-26 20:17:00,
2013-04-26 16:22:00,51.6,30.9,30.42,WNW,288,5.0,7.0,45,0.00,,,0.00,Wunderground v.1.15,2013-04-26 20:22:00,
2013-04-26 16:27:00,51.5,30.3,30.42,WNW,290,4.0,7.0,44,0.00,,,0.00,Wunderground v.1.15,2013-04-26 20:27:00,
2013-04-26 16:32:00,51.2,30.6,30.42,NW,311,3.0,6.0,45,0.00,,,0.00,Wunderground v.1.15,2013-04-26 20:32:00,
2013-04-26 16:38:00,50.9,30.8,30.42,SSW,200,2.0,6.0,46,0.00,,,0.00,Wunderground v.1.15,2013-04-26 20:38:00,
2013-04-26 16:43:00,51.0,29.3,30.42,WNW,290,4.0,7.0,43,0.00,,,0.00,Wunderground v.1.15,2013-04-26 20:43:00,
2013-04-26 16:48:00,50.8,29.1,30.42,West,267,5.0,8.0,43,0.00,,,0.00,Wunderground v.1.15,2013-04-26 20:48:00,
2013-04-26 16:53:00,50.9,30.3,30.42,WNW,297,5.0,6.0,45,0.00,,,0.00,Wunderground v.1.15,2013-04-26 20:53:00,
2013-04-26 16:58:00,51.0,30.4,30.42,NW,304,3.0,6.0,45,0.00,,,0.00,Wunderground v.1.15,2013-04-26 20:58:00,
2013-04-26 17:04:00,50.7,29.6,30.42,WSW,245,3.0,6.0,44,0.00,,,0.00,Wunderground v.1.15,2013-04-26 21:04:00,
2013-04-26 17:09:00,50.8,29.1,30.42,NNW,328,2.0,6.0,43,0.00,,,0.00,Wunderground v.1.15,2013-04-26 21:09:00,
2013-04-26 17:14:00,50.6,29.5,30.42,NNW,338,2.0,6.0,44,0.00,,,0.00,Wunderground v.1.15,2013-04-26 21:14:00,
2013-04-26 17:19:00,50.8,31.3,30.42,NNW,337,3.0,6.0,47,0.00,,,0.00,Wunderground v.1.15,2013-04-26 21:19:00,
2013-04-26 17:24:00,50.9,31.4,30.42,North,354,3.0,6.0,47,0.00,,,0.00,Wunderground v.1.15,2013-04-26 21:24:00,
2013-04-26 17:30:00,49.8,29.8,30.42,West,276,4.0,4.0,46,0.00,,,0.00,Wunderground v.1.15,2013-04-26 21:30:00,
2013-04-26 17:35:00,49.7,30.8,30.42,NW,320,3.0,6.0,48,0.00,,,0.00,Wunderground v.1.15,2013-04-26 21:35:00,
2013-04-26 17:40:00,49.6,31.2,30.42,NW,315,3.0,6.0,49,0.00,,,0.00,Wunderground v.1.15,2013-04-26 21:40:00,
2013-04-26 17:45:00,49.8,29.8,30.43,WNW,287,3.0,6.0,46,0.00,,,0.00,Wunderground v.1.15,2013-04-26 21:45:00,
2013-04-26 17:50:00,49.3,29.9,30.43,West,276,4.0,4.0,47,0.00,,,0.00,Wunderground v.1.15,2013-04-26 21:50:00,
2013-04-26 17:55:00,49.4,30.5,30.43,NW,316,4.0,6.0,48,0.00,,,0.00,Wunderground v.1.15,2013-04-26 21:55:00,
2013-04-26 18:00:00,49.1,30.2,30.43,NW,325,3.0,3.0,48,0.00,,,0.00,Wunderground v.1.15,2013-04-26 22:00:00,
2013-04-26 18:05:00,48.9,30.1,30.43,NW,314,3.0,6.0,48,0.00,,,0.00,Wunderground v.1.15,2013-04-26 22:05:00,
2013-04-26 18:10:00,48.9,30.1,30.43,WNW,294,3.0,3.0,48,0.00,,,0.00,Wunderground v.1.15,2013-04-26 22:10:00,
2013-04-26 18:15:00,49.0,30.7,30.43,NW,325,3.0,6.0,49,0.00,,,0.00,Wunderground v.1.15,2013-04-26 22:15:00,
2013-04-26 18:21:00,48.6,29.8,30.43,WNW,293,3.0,6.0,48,0.00,,,0.00,Wunderground v.1.15,2013-04-26 22:21:00,
2013-04-26 18:26:00,47.9,29.6,30.43,WNW,302,3.0,6.0,49,0.00,,,0.00,Wunderground v.1.15,2013-04-26 22:26:00,
2013-04-26 18:31:00,47.4,29.7,30.43,NW,307,3.0,6.0,50,0.00,,,0.00,Wunderground v.1.15,2013-04-26 22:31:00,
2013-04-26 18:36:00,47.1,28.9,30.43,NW,309,3.0,6.0,49,0.00,,,0.00,Wunderground v.1.15,2013-04-26 22:36:00,
2013-04-26 18:41:00,46.9,30.2,30.43,NNW,342,3.0,6.0,52,0.00,,,0.00,Wunderground v.1.15,2013-04-26 22:41:00,
2013-04-26 18:46:00,46.6,29.4,30.44,NW,313,2.0,6.0,51,0.00,,,0.00,Wunderground v.1.15,2013-04-26 22:46:00,
2013-04-26 18:52:00,46.2,29.5,30.43,NNW,333,3.0,6.0,52,0.00,,,0.00,Wunderground v.1.15,2013-04-26 22:52:00,
2013-04-26 18:57:00,45.9,29.2,30.43,NNW,332,3.0,6.0,52,0.00,,,0.00,Wunderground v.1.15,2013-04-26 22:57:00,
2013-04-26 19:02:00,45.7,29.1,30.44,NNE,19,2.0,6.0,52,0.00,,,0.00,Wunderground v.1.15,2013-04-26 23:02:00,
2013-04-26 19:07:00,45.4,28.8,30.44,NNW,332,1.0,6.0,52,0.00,,,0.00,Wunderground v.1.15,2013-04-26 23:07:00,
2013-04-26 19:12:00,45.1,28.5,30.44,NW,310,1.0,3.0,52,0.00,,,0.00,Wunderground v.1.15,2013-04-26 23:12:00,
2013-04-26 19:18:00,44.9,28.8,30.44,NW,309,2.0,6.0,53,0.00,,,0.00,Wunderground v.1.15,2013-04-26 23:18:00,
2013-04-26 19:23:00,44.6,28.5,30.44,NNW,342,2.0,6.0,53,0.00,,,0.00,Wunderground v.1.15,2013-04-26 23:23:00,
2013-04-26 19:28:00,44.3,28.7,30.44,NNW,346,2.0,6.0,54,0.00,,,0.00,Wunderground v.1.15,2013-04-26 23:28:00,
2013-04-26 19:33:00,43.9,28.3,30.44,NW,310,2.0,6.0,54,0.00,,,0.00,Wunderground v.1.15,2013-04-26 23:33:00,
2013-04-26 19:38:00,43.6,28.5,30.44,North,349,2.0,6.0,55,0.00,,,0.00,Wunderground v.1.15,2013-04-26 23:38:00,
2013-04-26 19:44:00,43.2,28.1,30.45,North,349,2.0,6.0,55,0.00,,,0.00,Wunderground v.1.15,2013-04-26 23:44:00,
2013-04-26 19:49:00,42.9,28.7,30.44,NNW,328,1.0,6.0,57,0.00,,,0.00,Wunderground v.1.15,2013-04-26 23:49:00,
2013-04-26 19:54:00,42.5,28.3,30.44,NNW,333,1.0,6.0,57,0.00,,,0.00,Wunderground v.1.15,2013-04-26 23:54:00,
2013-04-26 20:06:00,42.0,28.3,30.44,NNW,338,2.0,6.0,58,0.00,,,0.00,Wunderground v.1.15,2013-04-27 00:06:00,
2013-04-26 20:11:00,41.7,28.0,30.45,NNW,330,1.0,6.0,58,0.00,,,0.00,Wunderground v.1.15,2013-04-27 00:11:00,
2013-04-26 20:16:00,41.5,28.2,30.45,NNW,332,1.0,6.0,59,0.00,,,0.00,Wunderground v.1.15,2013-04-27 00:16:00,
2013-04-26 20:21:00,41.4,28.1,30.45,NNW,333,1.0,6.0,59,0.00,,,0.00,Wunderground v.1.15,2013-04-27 00:21:00,
2013-04-26 20:27:00,40.8,28.0,30.45,NNW,333,0.0,6.0,60,0.00,,,0.00,Wunderground v.1.15,2013-04-27 00:27:00,
2013-04-26 20:32:00,40.1,28.1,30.45,NNW,333,0.0,6.0,62,0.00,,,0.00,Wunderground v.1.15,2013-04-27 00:32:00,
2013-04-26 20:37:00,39.5,27.9,30.45,NNW,333,0.0,6.0,63,0.00,,,0.00,Wunderground v.1.15,2013-04-27 00:37:00,
2013-04-26 20:42:00,38.7,27.6,30.46,NNW,333,0.0,6.0,64,0.00,,,0.00,Wunderground v.1.15,2013-04-27 00:42:00,
2013-04-26 20:47:00,38.2,27.5,30.46,NNW,333,0.0,6.0,65,0.00,,,0.00,Wunderground v.1.15,2013-04-27 00:47:00,
2013-04-26 20:53:00,37.5,27.2,30.46,NNW,333,0.0,6.0,66,0.00,,,0.00,Wunderground v.1.15,2013-04-27 00:53:00,
2013-04-26 20:58:00,36.9,27.0,30.46,NNW,333,0.0,6.0,67,0.00,,,0.00,Wunderground v.1.15,2013-04-27 00:58:00,
2013-04-26 21:03:00,36.6,27.4,30.46,NNW,333,0.0,6.0,69,0.00,,,0.00,Wunderground v.1.15,2013-04-27 01:03:00,
2013-04-26 21:08:00,36.4,27.2,30.46,NNW,333,0.0,6.0,69,0.00,,,0.00,Wunderground v.1.15,2013-04-27 01:08:00,
2013-04-26 21:13:00,36.0,27.2,30.46,NNW,333,0.0,6.0,70,0.00,,,0.00,Wunderground v.1.15,2013-04-27 01:13:00,
2013-04-26 21:18:00,35.9,27.1,30.47,NNW,333,0.0,6.0,70,0.00,,,0.00,Wunderground v.1.15,2013-04-27 01:18:00,
2013-04-26 21:24:00,36.2,27.7,30.47,NNW,333,0.0,6.0,71,0.00,,,0.00,Wunderground v.1.15,2013-04-27 01:24:00,
2013-04-26 21:29:00,35.9,27.4,30.47,NNW,333,0.0,6.0,71,0.00,,,0.00,Wunderground v.1.15,2013-04-27 01:29:00,
2013-04-26 21:34:00,35.6,27.5,30.47,NNW,333,0.0,6.0,72,0.00,,,0.00,Wunderground v.1.15,2013-04-27 01:34:00,
2013-04-26 21:39:00,35.0,27.2,30.47,NNW,333,0.0,6.0,73,0.00,,,0.00,Wunderground v.1.15,2013-04-27 01:39:00,
2013-04-26 21:44:00,34.4,27.0,30.47,NNW,333,0.0,6.0,74,0.00,,,0.00,Wunderground v.1.15,2013-04-27 01:44:00,
2013-04-26 21:50:00,34.0,27.2,30.48,NNW,333,0.0,6.0,76,0.00,,,0.00,Wunderground v.1.15,2013-04-27 01:50:00,
2013-04-26 21:55:00,34.2,27.4,30.48,NNW,333,0.0,6.0,76,0.00,,,0.00,Wunderground v.1.15,2013-04-27 01:55:00,
2013-04-26 22:00:00,34.2,27.7,30.47,NNW,333,0.0,6.0,77,0.00,,,0.00,Wunderground v.1.15,2013-04-27 02:00:00,
2013-04-26 22:05:00,34.0,27.9,30.48,NNW,333,0.0,6.0,78,0.00,,,0.00,Wunderground v.1.15,2013-04-27 02:05:00,
2013-04-26 22:10:00,33.5,27.7,30.48,NNW,333,1.0,1.0,79,0.00,,,0.00,Wunderground v.1.15,2013-04-27 02:10:00,
2013-04-26 22:16:00,33.2,27.7,30.47,NNW,333,0.0,6.0,80,0.00,,,0.00,Wunderground v.1.15,2013-04-27 02:16:00,
2013-04-26 22:21:00,33.2,27.4,30.47,NNW,333,0.0,6.0,79,0.00,,,0.00,Wunderground v.1.15,2013-04-27 02:21:00,
2013-04-26 22:26:00,33.2,27.4,30.47,NNW,333,0.0,6.0,79,0.00,,,0.00,Wunderground v.1.15,2013-04-27 02:26:00,
2013-04-26 22:31:00,33.1,27.3,30.47,NNW,333,1.0,6.0,79,0.00,,,0.00,Wunderground v.1.15,2013-04-27 02:31:00,
2013-04-26 22:36:00,33.1,27.3,30.48,NNW,333,0.0,6.0,79,0.00,,,0.00,Wunderground v.1.15,2013-04-27 02:36:00,
2013-04-26 22:42:00,33.3,27.2,30.47,NNW,333,0.0,6.0,78,0.00,,,0.00,Wunderground v.1.15,2013-04-27 02:42:00,
2013-04-26 22:47:00,33.4,27.0,30.47,NNW,333,0.0,6.0,77,0.00,,,0.00,Wunderground v.1.15,2013-04-27 02:47:00,
2013-04-26 22:52:00,33.3,26.9,30.47,NNW,333,0.0,6.0,77,0.00,,,0.00,Wunderground v.1.15,2013-04-27 02:52:00,
2013-04-26 22:57:00,33.1,27.0,30.48,NNW,333,0.0,6.0,78,0.00,,,0.00,Wunderground v.1.15,2013-04-27 02:57:00,
2013-04-26 23:02:00,32.7,26.6,30.47,NNW,333,0.0,6.0,78,0.00,,,0.00,Wunderground v.1.15,2013-04-27 03:02:00,
2013-04-26 23:07:00,32.5,26.7,30.47,NNW,333,0.0,6.0,79,0.00,,,0.00,Wunderground v.1.15,2013-04-27 03:07:00,
2013-04-26 23:12:00,32.2,26.4,30.47,NNW,333,0.0,6.0,79,0.00,,,0.00,Wunderground v.1.15,2013-04-27 03:12:00,
2013-04-26 23:17:00,32.0,26.8,30.47,NNW,333,0.0,6.0,81,0.00,,,0.00,Wunderground v.1.15,2013-04-27 03:17:00,
2013-04-26 23:22:00,31.7,26.8,30.47,NNW,333,0.0,6.0,82,0.00,,,0.00,Wunderground v.1.15,2013-04-27 03:22:00,
2013-04-26 23:27:00,31.6,26.7,30.47,NNW,333,0.0,6.0,82,0.00,,,0.00,Wunderground v.1.15,2013-04-27 03:27:00,
2013-04-26 23:33:00,32.0,26.8,30.47,NNW,333,0.0,6.0,81,0.00,,,0.00,Wunderground v.1.15,2013-04-27 03:33:00,
2013-04-26 23:38:00,32.4,26.6,30.47,NNW,333,0.0,6.0,79,0.00,,,0.00,Wunderground v.1.15,2013-04-27 03:38:00,
2013-04-26 23:43:00,32.3,26.5,30.48,NNW,333,0.0,6.0,79,0.00,,,0.00,Wunderground v.1.15,2013-04-27 03:43:00,
2013-04-26 23:48:00,31.9,26.4,30.47,NNW,333,0.0,6.0,80,0.00,,,0.00,Wunderground v.1.15,2013-04-27 03:48:00,
2013-04-26 23:53:00,31.7,26.5,30.48,NNW,333,0.0,6.0,81,0.00,,,0.00,Wunderground v.1.15,2013-04-27 03:53:00,
2013-04-26 23:58:00,31.4,26.2,30.48,NNW,333,0.0,6.0,81,0.00,,,0.00,Wunderground v.1.15,2013-04-27 03:58:00,